Ft. Stewart, GA

11:35 AM EST on February 23, 2018 (GMT -0500)
Wright Army Air Field

Weather History for KLHW - July, 2013

Change the Weather History Date:

Sunday, July 14, 2013

  Actual Average Record
Temperature  
Mean Temperature 78 °F -  
Max Temperature 82 °F 94 °F 102 °F (1981)
Min Temperature 73 °F 71 °F 63 °F (1974)
Cooling Degree Days 12    
Growing Degree Days 28 (Base 50)    
Moisture  
Dew Point 77 °F    
Average Humidity 95    
Maximum Humidity 100    
Minimum Humidity 79    
Precipitation  
Precipitation 0.35 in - - ()
Sea Level Pressure  
Sea Level Pressure 30.12 in    
Wind  
Wind Speed 5 mph (East)    
Max Wind Speed 16 mph    
Max Gust Speed 26 mph    
Visibility 9 miles    
Events Rain    
Averages and records for this station are not official NWS values.
T = Trace of Precipitation, MM = Missing Value Source: NWS Daily Summary

Daily Weather History Graph

Daily Weather History Graph

Search for Another Location

Airport or City:

Trip Planner

Search our weather history database for the weather conditions in past years. The results will help you decide how hot, cold, wet, or windy it might be!

Date:

Astronomy

Jul. 14, 2013 Rise Set
Actual Time 6:30 AM EDT 8:33 PM EDT
Civil Twilight 6:03 AM EDT 9:00 PM EDT
Nautical Twilight 5:29 AM EDT 9:34 PM EDT
Astronomical Twilight 4:53 AM EDT 10:10 PM EDT
Moon 12:20 PM EDT (7/14) No Moon Set
Length of Visible Light 14h 57m
Length of Day
14h 02m
Waxing Crescent, 35% of the Moon is Illuminated
Jul 14
Waxing Crescent
Jul 15
First Quarter
Jul 22
Full
Jul 29
Last Quarter
Aug 6
New

Hourly Weather History & Observations

Time (EDT) Temp. Heat Index Dew Point Humidity Pressure Visibility Wind Dir Wind Speed Gust Speed Precip Events Conditions
12:04 AM 73.4 °F - 73.4 °F 100% 30.03 in 10.0 mi Calm Calm - N/A   Mostly Cloudy
8:58 AM 75.4 °F - 75.4 °F 100% 30.09 in 10.0 mi NNE 2.3 mph - N/A   Mostly Cloudy
9:13 AM 75.2 °F - 75.2 °F 100% 30.08 in 10.0 mi Calm Calm - N/A   Mostly Cloudy
9:15 AM 75.2 °F - 75.2 °F 100% 30.08 in 10.0 mi NE 2.3 mph - N/A Rain Light Rain
9:25 AM 75.2 °F - 75.2 °F 100% 30.08 in 2.5 mi Calm Calm - N/A Rain Heavy Rain
9:30 AM 75.2 °F - 75.2 °F 100% 30.09 in 2.0 mi SSE 6.9 mph - N/A Rain Rain
9:35 AM 75.2 °F - 75.2 °F 100% 30.09 in 1.5 mi SSE 2.3 mph - N/A Rain Heavy Rain
9:45 AM 75.2 °F - 75.2 °F 100% 30.10 in 4.0 mi ESE 2.3 mph - N/A Rain Light Rain
9:58 AM 75.2 °F - 75.2 °F 100% 30.11 in 6.0 mi Calm Calm - 0.22 in Rain Light Rain
10:04 AM 75.2 °F - 75.2 °F 100% 30.10 in 10.0 mi ENE 3.5 mph - N/A   Overcast
10:09 AM 75.2 °F - 75.2 °F 100% 30.10 in 10.0 mi ENE 5.8 mph - N/A   Overcast
10:19 AM 75.2 °F - 75.2 °F 100% 30.10 in 10.0 mi NE 6.9 mph - N/A   Overcast
10:23 AM 75.2 °F - 75.2 °F 100% 30.10 in 10.0 mi NE 4.6 mph - N/A Rain Light Rain
10:53 AM 75.2 °F - 75.2 °F 100% 30.11 in 10.0 mi ENE 5.8 mph - N/A   Light Drizzle
10:56 AM 75.2 °F - 75.2 °F 100% 30.11 in 10.0 mi ENE 4.6 mph - N/A   Overcast
10:58 AM 75.2 °F - 75.2 °F 100% 30.12 in 10.0 mi ENE 3.5 mph - 0.03 in   Overcast
11:08 AM 77.0 °F - 77.0 °F 100% 30.12 in 10.0 mi East 3.5 mph - N/A   Overcast
11:18 AM 77.0 °F - 77.0 °F 100% 30.12 in 10.0 mi Calm Calm - N/A   Mostly Cloudy
12:08 PM 78.8 °F - 78.8 °F 100% 30.13 in 10.0 mi ENE 4.6 mph - N/A   Overcast
12:13 PM 78.8 °F - 78.8 °F 100% 30.12 in 10.0 mi NE 2.3 mph - N/A   Overcast
12:16 PM 78.8 °F - 78.8 °F 100% 30.12 in 10.0 mi Calm Calm - N/A Rain Light Rain
12:41 PM 78.8 °F - 78.8 °F 100% 30.13 in 10.0 mi ENE 3.5 mph - N/A   Light Drizzle
12:48 PM 78.8 °F - 78.8 °F 100% 30.13 in 10.0 mi ENE 4.6 mph - N/A   Overcast
1:03 PM 78.8 °F - 78.8 °F 100% 30.13 in 10.0 mi NE 8.1 mph - N/A   Mostly Cloudy
1:08 PM 78.8 °F - 78.8 °F 100% 30.13 in 10.0 mi NE 9.2 mph - N/A   Overcast
1:18 PM 78.8 °F - 77.0 °F 94% 30.13 in 10.0 mi NE 9.2 mph - N/A   Mostly Cloudy
1:21 PM 78.8 °F - 77.0 °F 94% 30.14 in 9.0 mi NE 6.9 mph - N/A Rain Light Rain
1:31 PM 78.8 °F - 77.0 °F 94% 30.14 in 8.0 mi East 6.9 mph - N/A Rain Light Rain
1:33 PM 78.8 °F - 77.0 °F 94% 30.14 in 9.0 mi ENE 6.9 mph - N/A   Overcast
1:58 PM 80.4 °F 87.4 °F 78.1 °F 93% 30.14 in 10.0 mi NE 6.9 mph - 0.00 in   Mostly Cloudy
2:15 PM 80.6 °F 88.1 °F 78.8 °F 94% 30.13 in 6.0 mi East 13.8 mph - N/A Rain Light Rain
2:20 PM 80.6 °F 87.1 °F 77.0 °F 89% 30.13 in 1.8 mi ENE 3.5 mph - N/A Rain Heavy Rain
2:30 PM 78.8 °F - 78.8 °F 100% 30.13 in 6.0 mi ENE 6.9 mph - N/A Rain Light Rain
2:36 PM 78.8 °F - 78.8 °F 100% 30.13 in 10.0 mi ENE 8.1 mph - N/A   Mostly Cloudy
2:41 PM 80.6 °F 89.3 °F 80.6 °F 100% 30.13 in 10.0 mi East 8.1 mph - N/A   Mostly Cloudy
2:57 PM 80.6 °F 88.1 °F 78.8 °F 94% 30.12 in 10.0 mi East 15.0 mph - N/A Rain Light Rain
2:58 PM 80.6 °F 88.1 °F 78.8 °F 94% 30.13 in 10.0 mi East 16.1 mph - 0.10 in Rain Light Rain
3:16 PM 78.8 °F - 77.0 °F 94% 30.12 in 10.0 mi ESE 12.7 mph 26.5 mph N/A   Mostly Cloudy
4:06 PM 82.4 °F 90.9 °F 77.0 °F 84% 30.12 in 10.0 mi East 15.0 mph 20.7 mph N/A   Mostly Cloudy
4:16 PM 80.6 °F 87.1 °F 77.0 °F 89% 30.12 in 10.0 mi ESE 13.8 mph 24.2 mph N/A   Mostly Cloudy
4:26 PM 78.8 °F - 77.0 °F 94% 30.12 in 10.0 mi ESE 12.7 mph - N/A   Mostly Cloudy
4:56 PM 82.4 °F 90.9 °F 77.0 °F 84% 30.11 in 10.0 mi ESE 15.0 mph - N/A   Mostly Cloudy
4:59 PM 82.4 °F 90.9 °F 77.0 °F 84% 30.12 in 10.0 mi ESE 13.8 mph - N/A   Mostly Cloudy
5:14 PM 82.4 °F 90.9 °F 77.0 °F 84% 30.11 in 10.0 mi ESE 9.2 mph - N/A   Scattered Clouds
5:34 PM 82.4 °F 90.9 °F 77.0 °F 84% 30.12 in 10.0 mi East 10.4 mph 19.6 mph N/A   Mostly Cloudy
6:00 PM 82.4 °F 89.5 °F 75.2 °F 79% 30.11 in 10.0 mi East 12.7 mph 19.6 mph N/A   Mostly Cloudy
6:10 PM 80.6 °F 86.2 °F 75.2 °F 84% 30.10 in 10.0 mi East 13.8 mph - N/A   Mostly Cloudy
6:30 PM 82.4 °F 89.5 °F 75.2 °F 79% 30.10 in 10.0 mi East 12.7 mph - N/A Rain Light Rain
6:40 PM 82.4 °F 89.5 °F 75.2 °F 79% 30.10 in 10.0 mi East 13.8 mph 19.6 mph N/A   Clear
7:59 PM 79.7 °F - 74.8 °F 85% 30.13 in 10.0 mi East 8.1 mph - N/A   Clear
8:35 PM 77.0 °F - 75.2 °F 94% 30.14 in 10.0 mi East 6.9 mph - N/A Rain Light Rain
8:55 PM 77.0 °F - 75.2 °F 94% 30.14 in 10.0 mi East 6.9 mph - N/A   Partly Cloudy
9:01 PM 77.0 °F - 75.2 °F 94% 30.15 in 10.0 mi East 5.8 mph - N/A Rain Light Rain
9:07 PM 77.0 °F - 75.2 °F 94% 30.15 in 10.0 mi East 5.8 mph - N/A   Clear
10:58 PM - - - N/A% - - NE 4.6 mph - N/A   Unknown